Weather in Ol'ginskaja

Russia / Rostov Oblast     47°11′13″N   39°56′57″E
temp.,
°C
wind,
m/s
gust,
m/s
humid.,
%
clouds,
%
prec.,
mm/h
press.,
hPa
HPBL,
m
5 december, sun
sun500:00+4ne588977 0.0 1011238
03:00+4e4887100 0.0 1010272
06:00+5e5893100 3.7 1008250
09:00+6ene2597100 8.8 1008207
12:00+6nnw2397100 4.8 1008153
15:00+5nnw4691100 4.8 1010290
18:00+5n3488100 0.0 1014346
21:00+4n2287100 0.1 1016231
6 december, mon
mon600:00+4n1187100 0.0 1017145
03:00+5n1187100 0.0 1018103
06:00+5ne0087100 0.0 101865
09:00+5sse1181100 0.0 101997
12:00+7s1270100 0.0 1020642
15:00+8se126985 0.0 1020415
18:00+7e2377100 0.0 1020106
21:00+7e3582100 0.1 1021170
7 december, tue
tue700:00+7e3686100 0.1 1020153
03:00+7e359099 0.1 1020116
06:00+7e3889100 0.0 1020176
09:00+7e4984100 0.0 1019226
12:00+11ese4105761 0.0 1018407
15:00+13ese5105790 0.0 1016404
18:00+9e6137455 0.0 1015362
21:00+8ese7147836 0.0 1014444
8 december, wed
wed800:00+7e61480100 0.0 1013444
03:00+6ese51284100 0.0 1012446
06:00+5ese61292100 0.0 1011433
09:00+7ese51187100 0.0 1011370
12:00+10ese577472 0.0 1010461
15:00+10e5874100 0.0 1009331
18:00+8ese3683100 0.0 1010133
21:00+8e61086100 0.0 1010245
9 december, thu
thu900:00+8ese368882 0.0 1011114
03:00+7se3487100 0.0 101262
06:00+7sw3891100 0.0 1013160
09:00+9sw5982100 0.0 1014473
12:00+9sw51077100 0.0 1015655
15:00+9sw5981100 0.0 1016874
18:00+8wsw61183100 0.0 1017813
21:00+8sw61077100 0.0 1018933